This is the latest recevied weather packets stored in our database for station/object DK4MDA-13. If no packets are shown the sender has not sent any weather packets the latest 1 day(s).
| Time | Temp. | Humidity | Pressure | Rain* | Wind** | Luminosity | Snow |
|---|---|---|---|---|---|---|---|
| 1777976829 | 17.22° C | 84% | 1009.5 hPa | 0.25 mm | 0.89 m/s, 26° | - | - |
| 1777976529 | 17.22° C | 84% | 1009.6 hPa | 0.25 mm | 0.45 m/s, 26° | - | - |
| 1777976229 | 16.67° C | 84% | 1009.6 hPa | 0.25 mm | 0.89 m/s, 6° | - | - |
| 1777975929 | 16.67° C | 85% | 1009.8 hPa | 0.25 mm | 0.89 m/s, 26° | - | - |
| 1777975629 | 16.11° C | 88% | 1009.7 hPa | 0.25 mm | 0.89 m/s, 26° | - | - |
| 1777975329 | 16.11° C | 88% | 1009.7 hPa | 0.25 mm | 1.34 m/s, 26° | - | - |
| 1777975029 | 16.11° C | 88% | 1009.7 hPa | 0.25 mm | 1.34 m/s, 21° | - | - |
| 1777974729 | 16.11° C | 89% | 1009.7 hPa | 0.25 mm | 0.89 m/s, 26° | - | - |
| 1777974429 | 16.11° C | 89% | 1009.9 hPa | 0 mm | 0.45 m/s, 330° | - | - |
| 1777974129 | 16.11° C | 87% | 1009.8 hPa | 0 mm | 0.89 m/s, 330° | - | - |
| 1777973829 | 16.11° C | 89% | 1009.9 hPa | 0 mm | 0.89 m/s, 330° | - | - |
| 1777973529 | 15.56° C | 89% | 1010 hPa | 0 mm | 0.89 m/s, 26° | - | - |
| 1777973229 | 15.56° C | 89% | 1009.9 hPa | 0 mm | 0.89 m/s, 26° | - | - |
| 1777972929 | 15.56° C | 89% | 1009.9 hPa | 0 mm | 0.89 m/s, 26° | - | - |
| 1777972629 | 15.56° C | 88% | 1010 hPa | 0 mm | 1.34 m/s, 347° | - | - |
| 1777972332 | 15.56° C | 88% | 1009.9 hPa | 0 mm | 1.34 m/s, 345° | - | - |
| 1777972029 | 15.56° C | 89% | 1009.7 hPa | 0 mm | 0.89 m/s, 26° | - | - |
| 1777971729 | 15.56° C | 89% | 1009.7 hPa | 0 mm | 0.89 m/s, 12° | - | - |
| 1777971430 | 15.56° C | 89% | 1009.8 hPa | 0 mm | 0.89 m/s, 26° | - | - |
| 1777971129 | 15.56° C | 89% | 1009.9 hPa | 0 mm | 0.89 m/s, 353° | - | - |
| 1777970829 | 15.56° C | 90% | 1009.9 hPa | 0 mm | 0.89 m/s, 26° | - | - |
| 1777970529 | 15.56° C | 89% | 1010 hPa | 0 mm | 0.89 m/s, 328° | - | - |
| 1777970229 | 15° C | 89% | 1009.9 hPa | 0 mm | 0.89 m/s, 26° | - | - |
| 1777969929 | 15° C | 89% | 1010 hPa | 0 mm | 0.89 m/s, 26° | - | - |
| 1777969629 | 15° C | 90% | 1010 hPa | 0 mm | 0.45 m/s, 322° | - | - |
* Rain latest hour (hover to see other rain measurements)
** Current wind speed in m/s (hover to see current wind gust speed)